Location: Newark
(34.0131°N, 4.3314°W)
Time: 09:39:18
(UTC+00:00)

A-11 Canister half - Pass Details

Date: 24 October 2019
Orbit: 1514 x 1686 km, 47.2° (Epoch: 18 November)

Event Time Altitude Azimuth Distance (km) Brightness Sun altitude
Rises 04:19:10 0° 289° (WNW) 4,876 - -27.6°
Reaches altitude 10° 04:22:44 10° 298° (WNW) 3,866 - -26.9°
Exits shadow 04:26:59 25° 317° (NW) 2,829 10.0 -26.0°
Maximum altitude 04:31:39 37° 3° (N) 2,289 9.9 -25.1°
Drops below altitude 10° 04:40:18 10° 69° (ENE) 3,740 12.0 -23.3°
Sets 04:43:41 0° 77° (ENE) 4,702 12.9 -22.6°
